Weather History for Pompano Beach, FL

Change the Weather History Date:

Monday, May 12, 2014

  Actual Average Record
Temperature  
Mean Temperature 83 °F -  
Max Temperature 87 °F 86 °F 95 °F (1974)
Min Temperature 79 °F 68 °F 58 °F (1955)
Cooling Degree Days 18    
Growing Degree Days 33 (Base 50)    
Moisture  
Dew Point 69 °F    
Average Humidity 66    
Maximum Humidity 72    
Minimum Humidity 55    
Precipitation  
Precipitation 0.00 in - - ()
Sea Level Pressure  
Sea Level Pressure 30.08 in    
Wind  
Wind Speed 14 mph (East)    
Max Wind Speed 18 mph    
Max Gust Speed 25 mph    
Visibility 10 miles    
Events Rain    
Averages and records for this station are not official NWS values.
T = Trace of Precipitation, MM = Missing Value Source: NWS Daily Summary

Daily Weather History Graph

Daily Weather History Graph

Search for Another Location

Airport:

Trip Planner

Search our weather history database for the weather conditions in past years. The results will help you decide how hot, cold, wet, or windy it might be!

Date:

Astronomy

May. 12, 2014 Rise Set
Actual Time 6:35 AM EDT 7:58 PM EDT
Civil Twilight 6:10 AM EDT 8:23 PM EDT
Nautical Twilight 5:41 AM EDT 8:52 PM EDT
Astronomical Twilight 5:10 AM EDT 9:23 PM EDT
Moon 6:06 PM EDT (5/12) 4:59 AM EDT (5/12)
Length of Visible Light 14h 12m
Length of Day
13h 22m
Waxing Gibbous, 95% of the Moon is Illuminated
May 12
Waxing Gibbous
May 14
Full
May 21
Last Quarter
May 28
New
Jun 5
First Quarter

Hourly Weather History & Observations

Time (EDT) Temp. Heat Index Dew Point Humidity Pressure Visibility Wind Dir Wind Speed Gust Speed Precip Events Conditions
12:53 AM 79.0 °F - 66.0 °F 64% 30.11 in 10.0 mi East 12.7 mph - N/A   Clear
1:53 AM 79.0 °F - 68.0 °F 69% 30.08 in 10.0 mi ESE 13.8 mph - N/A   Clear
2:53 AM 79.0 °F - 69.1 °F 72% 30.06 in 10.0 mi East 12.7 mph - N/A   Partly Cloudy
3:53 AM 79.0 °F - 68.0 °F 69% 30.06 in 10.0 mi East 12.7 mph - 0.00 in Rain Light Rain
4:11 AM 79.0 °F - 69.1 °F 72% 30.06 in 10.0 mi East 12.7 mph - 0.00 in   Mostly Cloudy
4:18 AM 79.0 °F - 69.1 °F 72% 30.06 in 10.0 mi East 12.7 mph - 0.00 in   Scattered Clouds
4:53 AM 79.0 °F - 68.0 °F 69% 30.06 in 10.0 mi East 16.1 mph - 0.00 in   Scattered Clouds
5:53 AM 79.0 °F - 66.9 °F 66% 30.06 in 10.0 mi East 13.8 mph - N/A   Partly Cloudy
6:53 AM 79.0 °F - 68.0 °F 69% 30.07 in 9.0 mi East 15.0 mph - N/A   Partly Cloudy
7:53 AM 80.1 °F 82.9 °F 69.1 °F 69% 30.09 in 10.0 mi East 13.8 mph - N/A   Clear
8:53 AM 81.0 °F 84.4 °F 70.0 °F 69% 30.10 in 10.0 mi East 16.1 mph 21.9 mph N/A   Clear
10:53 AM 84.0 °F 86.3 °F 66.0 °F 55% 30.13 in 10.0 mi East 17.3 mph - N/A   Clear
11:53 AM 84.9 °F 88.8 °F 69.1 °F 59% 30.13 in 10.0 mi East 18.4 mph - N/A   Partly Cloudy
12:53 PM 86.0 °F 89.4 °F 68.0 °F 55% 30.13 in 10.0 mi East 16.1 mph - N/A   Clear
1:53 PM 84.9 °F 88.8 °F 69.1 °F 59% 30.11 in 10.0 mi East 16.1 mph - N/A   Clear
2:53 PM 87.1 °F 92.0 °F 70.0 °F 57% 30.10 in 10.0 mi East 16.1 mph - N/A   Partly Cloudy
3:53 PM 86.0 °F 90.1 °F 69.1 °F 57% 30.08 in 10.0 mi East 13.8 mph - N/A   Scattered Clouds
4:53 PM 84.0 °F 87.8 °F 69.1 °F 61% 30.08 in 10.0 mi East 12.7 mph - N/A   Scattered Clouds
5:53 PM 82.9 °F 86.5 °F 69.1 °F 63% 30.06 in 10.0 mi East 15.0 mph - N/A   Clear
6:53 PM 82.9 °F 87.0 °F 70.0 °F 65% 30.07 in 10.0 mi ENE 12.7 mph - N/A   Clear
7:53 PM 81.0 °F 84.9 °F 71.1 °F 72% 30.06 in 9.0 mi East 11.5 mph - N/A   Partly Cloudy
8:53 PM 81.0 °F 84.9 °F 71.1 °F 72% 30.06 in 9.0 mi East 16.1 mph - N/A   Clear
9:53 PM 80.1 °F 82.9 °F 69.1 °F 69% 30.07 in 9.0 mi East 17.3 mph 24.2 mph N/A   Clear
11:53 PM 80.1 °F 82.9 °F 69.1 °F 69% 30.07 in 9.0 mi East 16.1 mph 25.3 mph N/A   Clear